Regional Weather Roundup
Issued by NWS Sioux Falls, SD

Home | Current Version | Previous Version | Graphics & Text | Print | Product List | Glossary On
Versions: 1 2 3 4 5 6 7 8 9 10 11 12 13 14 15 16 17 18 19 20 21 22 23 24 25 26 27 28 29 30 31 32 33 34 35 36 37 38 39 40 41 42 43 44 45 46 47 48 49 50
000
ASUS43 KFSD 011810
RWRFSD

WEATHER ROUNDUP FOR SE SOUTH DAKOTA/SW MINNESOTA/NW IOWA
NATIONAL WEATHER SERVICE SIOUX FALLS SD
100 PM CDT WED JUL 01 2015

NOTE: "FAIR" INDICATES FEW OR NO CLOUDS BELOW 12,000 FEET WITH NO
SIGNIFICANT WEATHER AND OR OBSTRUCTIONS TO VISIBILITY.


SDZ038>040-050-052>070-011900-
SOUTHEAST SOUTH DAKOTA

CITY           SKY/WX    TMP DP  RH WIND       PRES   REMARKS
BROOKINGS      PTSUNNY   68  59  73 SE14G21   29.97F
CHAMBERLAIN    CLOUDY    76  65  69 E6        29.91S
6HR MIN TEMP:  64; 6HR MAX TEMP:  76;

HURON          PTSUNNY   76  66  71 E10       29.90F
6HR MIN TEMP:  65; 6HR MAX TEMP:  76; 6HR PCP: TRACE;

MADISON        CLOUDY    70  66  88 E10G17    29.96S
MITCHELL       CLOUDY    75  66  73 SE10      29.92R
6HR MIN TEMP:  66; 6HR MAX TEMP:  76; 6HR PCP:  0.01;

SIOUX FALLS    CLOUDY    69  63  81 SE10      29.95R
6HR MIN TEMP:  64; 6HR MAX TEMP:  69; 6HR PCP:  0.05;

WINNER         MOCLDY    82  64  54 N6        29.91R
YANKTON        CLOUDY    73  64  73 SE9       29.90R
$$

MNZ071-072-080-081-089-090-097-098-011900-
SOUTHWEST MINNESOTA

CITY           SKY/WX    TMP DP  RH WIND       PRES   REMARKS
FAIRMONT       CLOUDY    64  55  72 E7        29.98F
JACKSON        FAIR      68  57  68 E15       29.98F
LUVERNE        PTSUNNY   72  61  68 E10G18    29.96S
MARSHALL       CLOUDY    66  55  68 SE9         N/A
6HR MIN TEMP:  59; 6HR MAX TEMP:  66;

MONTEVIDEO     FAIR      70  57  64 S8        29.99S
PIPESTONE      FAIR      72  57  60 SE12      29.96S
REDWOOD FALLS  FAIR      66  57  72 E8        29.98F
TRACY          CLOUDY    68  60  75 SE7       29.99R
WINDOM         FAIR      70  57  64 E9        29.98F
WORTHINGTON    FAIR      68  57  68 SE13      29.98S
$$

IAZ001>003-012>014-020>022-031-032-NEZ013-014-SDZ071-011900-
NORTHWEST IOWA

CITY           SKY/WX    TMP DP  RH WIND       PRES   REMARKS
CHEROKEE       PTSUNNY   71  65  80 E10       29.94S
DENISON        PTSUNNY   70  68  94 NE10      29.91S FOG
ESTHERVILLE    PTSUNNY   65  57  75 E9        29.98F
LE MARS        CLOUDY    72  66  83 VRB6G14   29.94R
ORANGE CITY    FAIR      70  63  78 E10G17    29.94F
SHELDON        FAIR      68  68 100 SE14      29.94R
SIOUX CITY     PTSUNNY   76  67  73 SE8       29.90S
6HR MIN TEMP:  67; 6HR MAX TEMP:  76; 6HR PCP:  0.52;

SPENCER        LGT RAIN  67  57  70 E13       29.96F
6HR MIN TEMP:  63; 6HR MAX TEMP:  70;

STORM LAKE     FAIR      70  63  78 E13       29.95F
$$

ABBREVIATIONS USED IN REMARKS
   TC - TEMPERATURE IN CELSIUS
  WCI - WIND CHILL INDEX
   HX - HEAT INDEX
  VSB - VISIBILITY




USA.gov is the U.S. government's official web portal to all federal, state and local government web resources and services.